TimeAKST,TemperatureF,Dew PointF,Humidity,Sea Level PressureIn,VisibilityMPH,Wind Direction,Wind SpeedMPH,Gust SpeedMPH,PrecipitationIn,Events,Conditions,WindDirDegrees,DateUTC
12:53 AM,23.0,1.9,40,29.76,10.0,NE,5.8,-,N/A,,Partly Cloudy,50,2013-11-17 09:53:00
1:53 AM,24.1,-0.9,34,29.77,10.0,NE,8.1,19.6,N/A,,Scattered Clouds,50,2013-11-17 10:53:00
3:53 AM,23.0,-0.0,37,29.78,10.0,ESE,4.6,-,N/A,,Mostly Cloudy,120,2013-11-17 12:53:00
4:53 AM,23.0,-0.9,35,29.78,10.0,ENE,3.5,-,N/A,,Scattered Clouds,70,2013-11-17 13:53:00
5:53 AM,23.0,-2.0,34,29.79,10.0,Variable,4.6,-,N/A,,Mostly Cloudy,0,2013-11-17 14:53:00
6:53 AM,23.0,-2.9,32,29.81,10.0,East,6.9,-,N/A,,Clear,90,2013-11-17 15:53:00
7:53 AM,23.0,-2.9,32,29.82,10.0,East,10.4,17.3,N/A,,Clear,90,2013-11-17 16:53:00
8:53 AM,21.9,-2.9,34,29.83,10.0,East,5.8,-,N/A,,Mostly Cloudy,90,2013-11-17 17:53:00
9:53 AM,23.0,-2.0,34,29.85,10.0,East,9.2,-,N/A,,Mostly Cloudy,80,2013-11-17 18:53:00
10:53 AM,24.1,-0.9,34,29.86,10.0,East,15.0,21.9,N/A,,Mostly Cloudy,90,2013-11-17 19:53:00
11:53 AM,23.0,-2.0,34,29.87,10.0,East,13.8,28.8,N/A,,Mostly Cloudy,90,2013-11-17 20:53:00
12:53 PM,23.0,-2.0,34,29.87,10.0,East,16.1,21.9,N/A,,Mostly Cloudy,90,2013-11-17 21:53:00
1:53 PM,21.9,-0.9,37,29.88,10.0,East,12.7,21.9,N/A,,Mostly Cloudy,80,2013-11-17 22:53:00
2:53 PM,21.0,-2.0,36,29.89,10.0,East,10.4,20.7,N/A,,Scattered Clouds,80,2013-11-17 23:53:00
3:53 PM,19.9,-2.0,38,29.91,10.0,NE,9.2,-,N/A,,Scattered Clouds,50,2013-11-18 00:53:00
4:53 PM,19.0,-2.9,38,29.92,10.0,East,6.9,-,N/A,,Scattered Clouds,80,2013-11-18 01:53:00
5:53 PM,19.0,-4.0,36,29.93,10.0,East,8.1,-,N/A,,Partly Cloudy,80,2013-11-18 02:53:00
6:53 PM,18.0,-4.0,38,29.94,10.0,NE,5.8,-,N/A,,Partly Cloudy,50,2013-11-18 03:53:00
7:53 PM,18.0,-4.0,38,29.95,10.0,East,10.4,19.6,N/A,,Partly Cloudy,90,2013-11-18 04:53:00
8:53 PM,18.0,-5.1,36,29.96,10.0,NE,6.9,-,N/A,,Partly Cloudy,50,2013-11-18 05:53:00
9:53 PM,17.1,-4.0,39,29.97,10.0,East,9.2,-,N/A,,Partly Cloudy,90,2013-11-18 06:53:00
10:53 PM,18.0,-8.0,31,29.98,10.0,ENE,13.8,23.0,N/A,,Partly Cloudy,60,2013-11-18 07:53:00
11:53 PM,17.1,-4.0,39,29.99,10.0,East,13.8,-,N/A,,Clear,90,2013-11-18 08:53:00